Back to catalog

CZ-6A DEB

AlivePO
NORAD 61297·DEBRIS·🇨🇳 China

Launched Aug 6, 2024 from Taiyuan Satellite Launch Center

Loading…

Next Passes (next 24 hours)

TLE

FreshSource: Space-Track

Epoch: Sep 14, 2026, 23:26 UTC

1 61297U 24140TJ  26257.97706671  .00002182  00000-0  96131-3 0  9997
2 61297  89.0396 268.5211 0056897 247.3939 112.1227 14.22250041106070

Track CZ-6A DEB in real time with AllMySat

Download on the App Store